Location: Natural Bridges National Monument
(37.6093°N, 109.9767°W)
Time: 19:35:31
(UTC-07:00)

ISS - Visible Passes

Search period start: 24 January 2020 00:00
Search period end: 03 February 2020 00:00
Orbit: 415 x 423 km, 51.6° (Epoch: 25 January)

Date Brightness Start Highest point End Pass type
(mag) Time Alt. Az. Time Alt. Az. Time Alt. Az.
24 Jan -2.2 18:08:07 10° W 18:11:09 30° NNW 18:14:12 10° NNE visible
25 Jan -1.1 18:59:41 10° NW 19:01:01 12° NNW 19:02:18 10° N visible
26 Jan -1.3 18:11:09 10° WNW 18:13:14 15° NNW 18:15:20 10° NNE visible
02 Feb -1.6 19:08:04 10° NNW 19:09:39 15° N 19:09:39 15° N visible
